Location: Huntsville
(34.7300°N, 86.5860°W)
Time: 14:23:00
(UTC-05:00)

Hubble Space Telescope - Visible Passes

Search period start: 01 October 2023 00:00
Search period end: 11 October 2023 00:00
Orbit: 521 x 525 km, 28.5° (Epoch: 30 September)

Date Brightness Start Highest point End Pass type
(mag) Time Alt. Az. Time Alt. Az. Time Alt. Az.
04 Oct 3.0 19:47:51 10° S 19:48:48 11° SSE 19:48:48 11° SSE visible
05 Oct 2.8 19:31:35 10° S 19:33:37 14° SSE 19:34:19 13° SSE visible
06 Oct 2.7 19:15:30 10° SSW 19:17:58 16° SSE 19:19:45 12° SE visible
06 Oct 3.7 20:54:44 10° SW 20:54:47 10° SW 20:54:47 10° SW visible
07 Oct 2.6 18:59:32 10° SSW 19:02:18 18° SSE 19:05:04 10° ESE visible
07 Oct 3.2 20:39:03 10° WSW 20:40:09 16° SW 20:40:09 16° SW visible
08 Oct 2.5 18:43:38 10° SSW 18:46:37 20° SSE 18:49:37 10° ESE visible
08 Oct 2.6 20:23:23 10° WSW 20:25:27 24° SW 20:25:27 24° SW visible
09 Oct 2.0 20:07:42 10° WSW 20:10:43 31° SSW 20:10:43 31° SSW visible
10 Oct 1.7 19:52:01 10° WSW 19:55:41 33° S 19:55:57 33° S visible
